TimeEST,TemperatureF,Dew PointF,Humidity,Sea Level PressureIn,VisibilityMPH,Wind Direction,Wind SpeedMPH,Gust SpeedMPH,PrecipitationIn,Events,Conditions,WindDirDegrees,DateUTC
12:54 AM,30.9,18.0,59,30.09,10.0,Calm,Calm,-,N/A,,Clear,0,2012-11-25 05:54:00
1:54 AM,30.0,19.0,64,30.08,10.0,NW,4.6,-,N/A,,Clear,320,2012-11-25 06:54:00
2:54 AM,30.0,18.0,61,30.10,10.0,Calm,Calm,-,N/A,,Clear,0,2012-11-25 07:54:00
3:54 AM,28.9,19.0,67,30.10,10.0,Calm,Calm,-,N/A,,Clear,0,2012-11-25 08:54:00
4:54 AM,28.0,19.9,72,30.09,10.0,Calm,Calm,-,N/A,,Clear,0,2012-11-25 09:54:00
5:54 AM,28.0,19.9,72,30.12,10.0,Calm,Calm,-,N/A,,Clear,0,2012-11-25 10:54:00
6:54 AM,28.0,21.0,75,30.12,10.0,Calm,Calm,-,N/A,,Clear,0,2012-11-25 11:54:00
7:54 AM,30.9,24.1,76,30.13,10.0,Calm,Calm,-,N/A,,Clear,0,2012-11-25 12:54:00
8:54 AM,37.9,26.1,62,30.14,10.0,West,3.5,-,N/A,,Clear,270,2012-11-25 13:54:00
9:54 AM,41.0,21.0,45,30.13,10.0,West,6.9,-,N/A,,Clear,260,2012-11-25 14:54:00
10:54 AM,43.0,19.0,38,30.13,10.0,SW,10.4,-,N/A,,Clear,220,2012-11-25 15:54:00
11:54 AM,45.0,19.0,36,30.09,10.0,WSW,10.4,-,N/A,,Clear,240,2012-11-25 16:54:00
12:54 PM,46.0,19.0,34,30.05,10.0,WSW,12.7,20.7,N/A,,Clear,240,2012-11-25 17:54:00
1:54 PM,46.9,19.0,33,30.02,10.0,SW,15.0,-,N/A,,Clear,230,2012-11-25 18:54:00
2:54 PM,48.0,19.0,32,30.01,10.0,WSW,11.5,-,N/A,,Clear,240,2012-11-25 19:54:00
3:54 PM,48.0,19.0,32,30.01,10.0,WSW,10.4,-,N/A,,Clear,250,2012-11-25 20:54:00
4:54 PM,44.1,21.0,40,30.02,10.0,SW,6.9,-,N/A,,Clear,230,2012-11-25 21:54:00
5:54 PM,42.1,21.9,45,30.03,10.0,SSW,9.2,-,N/A,,Clear,210,2012-11-25 22:54:00
6:54 PM,44.1,21.9,42,30.03,10.0,SSW,10.4,-,N/A,,Clear,210,2012-11-25 23:54:00
7:54 PM,44.1,21.9,42,30.04,10.0,SW,10.4,-,N/A,,Clear,220,2012-11-26 00:54:00
8:54 PM,44.1,23.0,43,30.05,10.0,SW,10.4,-,N/A,,Clear,220,2012-11-26 01:54:00
9:54 PM,44.1,23.0,43,30.05,10.0,SW,13.8,-,N/A,,Clear,230,2012-11-26 02:54:00
10:54 PM,44.1,24.1,45,30.05,10.0,SW,12.7,-,N/A,,Clear,220,2012-11-26 03:54:00
11:54 PM,43.0,24.1,47,30.05,10.0,SW,11.5,-,N/A,,Clear,230,2012-11-26 04:54:00